Flag Weather past 2 weeks in Whitby, Ontario, Canada

Now
57 °F

Partly sunny.


Feels Like: 53 °F
Forecast: 41 / 53 °F
Wind: 21 mph from Southwest

Location: Toronto Buttonville

Current Time: Nov 24, 2014 at 11:41:41 AM

Latest Report: Nov 24, 2014 at 11:00 AM


Visibility: 15 mi

Pressure: 29.20 "Hg

Humidity: 88%

Dew point: 54 °F

Location of WhitbyLocation

Historic Weather in Whitby — Graph

°F

Whitby temperature yesterday

Maximum temperature yesterday: 48 °F (at 11:00 AM)
Minimum temperature yesterday: 39 °F (at 5:00 AM)
Average temperature yesterday: 44 °F

Past Weeks' High & Low Weather Summary

 TemperatureHumidityPressure
High61 °F (Nov 11, 2:00 PM)100% (Nov 11, 2:00 AM)30.45 "Hg (Nov 11, 2:00 AM)
Low16 °F (Nov 18, 6:00 AM)46% (Nov 20, 3:00 PM)29.19 "Hg (Nov 24, 8:00 AM)
Average33 °F74%29.96 "Hg
* Reported Nov 9 10:00 AM — Nov 24 10:00 AM, Whitby, Weather by CustomWeather, © 2014

Note: Actual official high and low records may vary slightly from our data, if they occured in-between our weather recording intervals... More about our weather records

Advertising

Whitby weather history for previous 24 hours

 ConditionsComfort  
Time TempWeatherWind HumidityBarometerVisibility
10:00 AM
Nov 24
57 °FMostly cloudy.17 mph88%29.21 "Hg15 mi
9:00 AM55 °FMostly cloudy.16 mph94%29.21 "Hg15 mi
8:00 AM55 °FOvercast.20 mph88%29.19 "Hg15 mi
7:00 AM52 °FLight rain. Fog.18 mph94%29.20 "Hg3 mi
6:00 AM46 °FLight rain. Fog.8 mph100%29.22 "Hg3 mi
5:00 AM46 °FLight rain. Fog.10 mph100%29.25 "Hg4 mi
4:00 AM46 °FLight rain. Fog.14 mph100%29.30 "Hg2 mi
3:00 AM45 °FLight rain. Fog.15 mph100%29.35 "Hg2 mi
2:00 AM43 °FLight rain. Fog.13 mph100%29.42 "Hg5 mi
1:00 AM45 °FLight rain. Fog.8 mph87%29.50 "Hg5 mi
12:00 AM46 °FOvercast.9 mph76%29.59 "Hg15 mi
11:00 PM
Nov 23
45 °FOvercast.10 mph87%29.65 "Hg15 mi
10:00 PM45 °FOvercast.7 mph87%29.69 "Hg15 mi
9:00 PM45 °FOvercast.7 mph87%29.73 "Hg15 mi
8:00 PM43 °FOvercast.5 mph93%29.79 "Hg15 mi
7:00 PM43 °FOvercast.3 mph100%29.82 "Hg10 mi
6:00 PM45 °FPassing clouds.6 mph93%29.84 "Hg12 mi
5:00 PM46 °FLow clouds.7 mph93%29.85 "Hg10 mi
4:00 PM46 °FLow clouds.5 mph93%29.88 "Hg10 mi
3:00 PM46 °FLow clouds.7 mph93%29.90 "Hg10 mi
2:00 PM46 °FLow clouds.12 mph93%29.93 "Hg10 mi
1:55 PMN/ALow clouds.12 mphN/AN/A10 mi
1:00 PM46 °FLight rain. Mostly cloudy.8 mph93%29.95 "Hg7 mi
12:00 PM46 °FDrizzle. Overcast.7 mph82%29.99 "Hg5 mi
11:00 AM48 °FMostly cloudy.7 mph82%30.00 "Hg12 mi
Weather by CustomWeather, © 2014

See weather overviewHow to use our weather pages